TimeCET,TemperatureF,Dew PointF,Humidity,Sea Level PressureIn,VisibilityMPH,Wind Direction,Wind SpeedMPH,Gust SpeedMPH,PrecipitationIn,Events,Conditions,WindDirDegrees,DateUTC
5:30 AM,46.4,44.6,93,29.71,6.2,Calm,Calm,-,N/A,,Scattered Clouds,0,2012-11-02 04:30:00
6:00 AM,48.2,46.4,93,29.71,6.2,South,1.2,-,N/A,,Scattered Clouds,170,2012-11-02 05:00:00
6:30 AM,46.4,44.6,93,29.71,6.2,Variable,2.3,-,N/A,,Scattered Clouds,0,2012-11-02 05:30:00
7:00 AM,46.4,42.8,87,29.68,6.2,Calm,Calm,-,N/A,,Partly Cloudy,0,2012-11-02 06:00:00
7:30 AM,44.6,42.8,93,29.68,6.2,Variable,1.2,-,N/A,,Partly Cloudy,0,2012-11-02 06:30:00
8:00 AM,44.6,42.8,93,29.68,6.2,Calm,Calm,-,N/A,,Partly Cloudy,0,2012-11-02 07:00:00
8:30 AM,44.6,42.8,93,29.68,6.2,Variable,1.2,-,N/A,,Partly Cloudy,0,2012-11-02 07:30:00
9:00 AM,48.2,44.6,87,29.68,6.2,Variable,2.3,-,N/A,,Partly Cloudy,0,2012-11-02 08:00:00
9:30 AM,55.4,42.8,63,29.68,6.2,SW,5.8,-,N/A,,Partly Cloudy,220,2012-11-02 08:30:00
10:00 AM,59.0,44.6,59,29.68,-9999.0,SW,8.1,-,N/A,,Clear,220,2012-11-02 09:00:00
10:30 AM,60.8,44.6,55,29.68,-9999.0,SW,9.2,-,N/A,,Clear,220,2012-11-02 09:30:00
11:00 AM,62.6,46.4,55,29.71,6.2,SSW,8.1,-,N/A,,Partly Cloudy,210,2012-11-02 10:00:00
11:30 AM,64.4,46.4,52,29.71,6.2,SW,9.2,-,N/A,,Partly Cloudy,220,2012-11-02 10:30:00
12:00 PM,64.4,46.4,52,29.71,-9999.0,SW,9.2,-,N/A,,Clear,220,2012-11-02 11:00:00
12:30 PM,64.4,46.4,52,29.71,-9999.0,SW,9.2,-,N/A,,Clear,230,2012-11-02 11:30:00
1:00 PM,66.2,44.6,46,29.71,-9999.0,SSW,8.1,-,N/A,,Clear,210,2012-11-02 12:00:00
1:30 PM,64.4,44.6,49,29.71,-9999.0,WSW,4.6,-,N/A,,Clear,250,2012-11-02 12:30:00
2:00 PM,66.2,44.6,46,29.71,-9999.0,WSW,4.6,-,N/A,,Clear,250,2012-11-02 13:00:00
2:30 PM,64.4,44.6,49,29.71,-9999.0,NE,3.5,-,N/A,,Clear,40,2012-11-02 13:30:00
3:00 PM,64.4,44.6,49,29.68,-9999.0,NNE,5.8,-,N/A,,Clear,30,2012-11-02 14:00:00
3:30 PM,62.6,50.0,63,29.68,-9999.0,NE,4.6,-,N/A,,Clear,50,2012-11-02 14:30:00
4:00 PM,64.4,48.2,56,29.71,-9999.0,NE,4.6,-,N/A,,Clear,40,2012-11-02 15:00:00
4:30 PM,62.6,50.0,63,29.71,-9999.0,NE,3.5,-,N/A,,Clear,40,2012-11-02 15:30:00
5:00 PM,62.6,50.0,63,29.71,-9999.0,NE,4.6,-,N/A,,Clear,50,2012-11-02 16:00:00
5:30 PM,60.8,50.0,68,29.71,-9999.0,ENE,4.6,-,N/A,,Clear,70,2012-11-02 16:30:00
6:00 PM,60.8,48.2,63,29.68,-9999.0,Variable,1.2,-,N/A,,Clear,0,2012-11-02 17:00:00
6:30 PM,59.0,48.2,67,29.68,6.2,Calm,Calm,-,N/A,,Partly Cloudy,0,2012-11-02 17:30:00
7:00 PM,59.0,48.2,67,29.71,6.2,Variable,2.3,-,N/A,,Partly Cloudy,0,2012-11-02 18:00:00
7:30 PM,55.4,48.2,77,29.71,6.2,Variable,1.2,-,N/A,,Partly Cloudy,0,2012-11-02 18:30:00
8:00 PM,57.2,46.4,67,29.71,-9999.0,Variable,2.3,-,N/A,,Clear,0,2012-11-02 19:00:00
8:30 PM,62.6,46.4,55,29.71,-9999.0,SW,9.2,-,N/A,,Clear,230,2012-11-02 19:30:00
9:00 PM,64.4,46.4,52,29.71,-9999.0,SW,9.2,-,N/A,,Clear,220,2012-11-02 20:00:00
9:30 PM,64.4,46.4,52,29.68,-9999.0,SW,10.4,-,N/A,,Clear,220,2012-11-02 20:30:00
10:00 PM,64.4,46.4,52,29.68,-9999.0,SW,9.2,-,N/A,,Clear,220,2012-11-02 21:00:00
10:30 PM,64.4,44.6,49,29.68,-9999.0,SSW,6.9,-,N/A,,Clear,210,2012-11-02 21:30:00
11:00 PM,64.4,44.6,49,29.68,-9999.0,SSW,9.2,-,N/A,,Clear,210,2012-11-02 22:00:00